User: anonymous
Location: Unspecified
(0.0000°N, 0.0000°E)
Time: 15:47:51
(UTC+02:00)
Language:

Cosmos 1933 - Orbit

View from above orbital plane
View from above orbital plane
View from above satellite
View from above satellite

Ground track
Ground track

The orbit data is extracted from the following two-line orbital elements,

1 18958U 88020A   14110.14207962  .00004107  00000-0  32484-3 0  2840
2 18958 082.5294 135.6354 0011047 237.0396 122.9766 15.00361084418276
Epoch (UTC): 20 April 2014 03:24:35
Eccentricity: 0.0011047
inclination: 82.5294°
perigee height: 558 km
apogee height: 573 km
right ascension of ascending node: 135.6354°
argument of perigee: 237.0396°
revolutions per day: 15.00361084
mean anomaly at epoch: 122.9766°
orbit number at epoch: 41827

The dashed part of the orbit path shows where the satellite is in the earth's shadow,  

DLR